Regional Weather Roundup
Issued by NWS

Home | Current Version | Previous Version | Text Only | Print | Product List | Glossary On
Versions: 1 2 3 4 5 6 7 8 9 10 11 12 13 14 15 16 17 18 19 20 21 22 23 24 25 26 27 28 29 30 31 32 33 34 35 36 37 38 39 40 41 42 43 44 45 46 47 48 49 50
000
ASUS43 KLMK 291002
RWRKY
KENTUCKY REGIONAL WEATHER ROUNDUP
NATIONAL WEATHER SERVICE LOUISVILLE KY
600 AM EDT WED MAR 29 2017

NOTE "FAIR" INDICATES FEW OR NO CLOUDS BELOW 12,000 FEET
WITH NO SIGNIFICANT WEATHER AND/OR OBSTRUCTIONS TO VISIBILITY.

KYZ001>023-026-027-061>063-070>075-291100-
WESTERN AND SOUTH CENTRAL KENTUCKY

CITY           SKY/WX    TMP DP  RH WIND       PRES   REMARKS
PADUCAH        CLEAR     50  47  89 E8        30.00F FOG
HENDERSON      CLOUDY    52  45  76 NE8       30.06S
OWENSBORO        N/A    N/A N/A N/A MISG        N/A
HOPKINSVILLE   CLEAR     51  51 100 NE6       30.03R FOG
BOWLING GREEN  CLOUDY    54  51  90 NE6       30.06S
GLASGOW        NOT AVBL
$$

KYZ024-025-028>034-038-045-046-053-291100-
NORTH CENTRAL KENTUCKY

CITY           SKY/WX    TMP DP  RH WIND       PRES   REMARKS
LOUISVILLE/SDF CLOUDY    54  47  77 NE9       30.10S
LOUISVILLE/LOU CLOUDY    53  47  79 NE8       30.11S
FORT KNOX      CLEAR     50  48  92 NE7       30.08R
$$

KYZ035>037-039>044-047>052-055>060-089>105-291100-
NORTHEAST KENTUCKY

CITY           SKY/WX    TMP DP  RH WIND       PRES   REMARKS
LEXINGTON      CLOUDY    51  46  83 NE10      30.10S
COVINGTON      CLOUDY    47  43  86 NE14      30.14R
FRANKFORT      CLOUDY    53  45  74 NE7       30.10R
$$

KYZ054-064>069-076>088-106>120-291100-
SOUTHEAST KENTUCKY

CITY           SKY/WX    TMP DP  RH WIND       PRES   REMARKS
JACKSON        MOCLDY    52  49  89 NE3       30.07S
LONDON         CLOUDY    55  51  86 N8        30.06R
SOMERSET       NOT AVBL
MIDDLESBORO    PTCLDY    47  47 100 CALM      30.06S
MONTICELLO     CLOUDY    55  53  93 NW7       30.08S
$$




USA.gov is the U.S. government's official web portal to all federal, state and local government web resources and services.